User: anonymous   Login
Location: Unspecified
(0.0000°N, 0.0000°E)
Time: 00:45:06
(UTC+00:00)
Language:

Orbcomm G2 (FM04) - Orbit

View from above orbital plane
View from above orbital plane
View from above satellite
View from above satellite

Ground track
Ground track

The orbit data is extracted from the following two-line orbital elements,

1 25159U 98007C   21023.85113931  .00000037  00000-0  65036-4 0  9999
2 25159 107.9950  94.7601 0044459 161.1147 199.1650 14.29905413194619
Epoch (UTC): 23 January 2021 20:25:38
Eccentricity: 0.0044459
inclination: 107.9950°
perigee height: 760 km
apogee height: 824 km
right ascension of ascending node: 94.7601°
argument of perigee: 161.1147°
revolutions per day: 14.29905413
mean anomaly at epoch: 199.1650°
orbit number at epoch: 19461

The dashed part of the orbit path shows where the satellite is in the earth's shadow,  

DLR